Volver al catálogo

FENGYUN 1C DEB

LostPO
NORAD 38518·DEBRIS·🇨🇳 China

Lanzado May 10, 1999 desde Taiyuan Satellite Launch Center

Loading…

Próximos Pases (próximas 24 horas)

TLE

ObsoletoSource: Space-Track

Época: Sep 13, 2022, 22:03 UTC

1 38518U 99025ETD 22256.91921616  .00004380  00000-0  13155-2 0  9994
2 38518  99.2078 291.8337 0030128  56.2889 304.1164 14.42982615662349

Sigue FENGYUN 1C DEB en tiempo real con AllMySat

Download on the App Store